owner,sensor,date,latitude,longitude,vertical_datum,wind_speed,wind_to_direction,wind_speed_of_gust,qcFlag 
TABS,ioos:station:wmo:42044:1,2010-05-01T00:00:00Z,26.1914,-97.0507,0.0,5.040168648,153.740253,6.67,'11111222,11111222,11111222' 
TABS,ioos:station:wmo:42044:1,2010-05-01T00:30:00Z,26.1914,-97.0507,0.0,4.788695021,140.593038,6.1,'11111222,11111222,11111222' 
TABS,ioos:station:wmo:42044:1,2010-05-01T01:00:00Z,26.1914,-97.0507,0.0,5.125085365,139.0352338,6.5,'11111222,11111222,11111222' 
TABS,ioos:station:wmo:42044:1,2010-05-01T01:30:00Z,26.1914,-97.0507,0.0,4.522830972,128.8975503,5.55,'11111222,11111222,11111222' 
TABS,ioos:station:wmo:42044:1,2010-05-01T02:00:00Z,26.1914,-97.0507,0.0,5.438648729,127.7551995,6.64,'11111222,11111222,11111222' 
TABS,ioos:station:wmo:42044:1,2010-05-01T02:30:00Z,26.1914,-97.0507,0.0,5.632512761,127.6433511,7.0,'11111222,11111222,11111222' 
TABS,ioos:station:wmo:42044:1,2010-05-01T03:00:00Z,26.1914,-97.0507,0.0,6.80391064,129.6333872,8.48,'11111222,11111222,11111222' 
TABS,ioos:station:wmo:42044:1,2010-05-01T03:30:00Z,26.1914,-97.0507,0.0,6.933318109,139.8561472,9.02,'11111222,11111222,11111222' 
TABS,ioos:station:wmo:42044:1,2010-05-01T04:00:00Z,26.1914,-97.0507,0.0,6.982299048,148.2906414,9.2,'11111222,11111222,11111222' 
TABS,ioos:station:wmo:42044:1,2010-05-01T04:30:00Z,26.1914,-97.0507,0.0,6.954315207,153.0667657,8.8,'11111222,11111222,11111222' 
TABS,ioos:station:wmo:42044:1,2010-05-01T05:00:00Z,26.1914,-97.0507,0.0,7.180027855,157.2208009,9.95,'11111222,11111222,11111222' 
TABS,ioos:station:wmo:42044:1,2010-05-01T05:30:00Z,26.1914,-97.0507,0.0,7.034571771,158.8340997,8.82,'11111222,11111222,11111222' 
TABS,ioos:station:wmo:42044:1,2010-05-01T06:00:00Z,26.1914,-97.0507,0.0,6.438400422,161.6215873,8.57,'11111222,11111222,11111222' 
TABS,ioos:station:wmo:42044:1,2010-05-01T06:30:00Z,26.1914,-97.0507,0.0,6.731478292,169.5583539,9.1,'11111222,11111222,11111222' 
TABS,ioos:station:wmo:42044:1,2010-05-01T07:00:00Z,26.1914,-97.0507,0.0,6.650187967,170.0421631,8.84,'11111222,11111222,11111222' 
TABS,ioos:station:wmo:42044:1,2010-05-01T07:30:00Z,26.1914,-97.0507,0.0,6.961328896,167.6410509,8.97,'11111222,11111222,11111222' 
TABS,ioos:station:wmo:42044:1,2010-05-01T08:00:00Z,26.1914,-97.0507,0.0,6.306203295,162.3698046,8.02,'11111222,11111222,11111222' 
TABS,ioos:station:wmo:42044:1,2010-05-01T08:30:00Z,26.1914,-97.0507,0.0,5.764624879,151.1677119,7.5,'11111222,11111222,11111222' 
TABS,ioos:station:wmo:42044:1,2010-05-01T09:00:00Z,26.1914,-97.0507,0.0,5.717735566,147.6443769,7.57,'11111222,11111222,11111222' 
TABS,ioos:station:wmo:42044:1,2010-05-01T09:30:00Z,26.1914,-97.0507,0.0,6.98960657,140.4571214,8.75,'11111222,11111222,11111222' 
TABS,ioos:station:wmo:42044:1,2010-05-01T10:00:00Z,26.1914,-97.0507,0.0,8.3542564,146.9189175,10.9,'11111222,11111222,11111222' 
TABS,ioos:station:wmo:42044:1,2010-05-01T10:30:00Z,26.1914,-97.0507,0.0,7.72859625,143.8421096,10.22,'11111222,11111222,11111222' 
TABS,ioos:station:wmo:42044:1,2010-05-01T11:00:00Z,26.1914,-97.0507,0.0,8.384032443,144.9074981,10.41,'11111222,11111222,11111222' 
TABS,ioos:station:wmo:42044:1,2010-05-01T11:30:00Z,26.1914,-97.0507,0.0,8.066430437,144.5369291,10.74,'11111222,11111222,11111222' 
TABS,ioos:station:wmo:42044:1,2010-05-01T12:00:00Z,26.1914,-97.0507,0.0,8.431239529,149.5726376,10.8,'11111222,11111222,11111222' 
TABS,ioos:station:wmo:42044:1,2010-05-01T12:30:00Z,26.1914,-97.0507,0.0,8.302246684,149.0483618,10.66,'11111222,11111222,11111222' 
TABS,ioos:station:wmo:42044:1,2010-05-01T13:00:00Z,26.1914,-97.0507,0.0,8.178850775,150.2380206,10.56,'11111222,11111222,11111222' 
TABS,ioos:station:wmo:42044:1,2010-05-01T13:30:00Z,26.1914,-97.0507,0.0,8.496422777,155.9693076,10.81,'11111222,11111222,11111222' 
TABS,ioos:station:wmo:42044:1,2010-05-01T14:00:00Z,26.1914,-97.0507,0.0,8.473417256,155.0078852,10.92,'11111222,11111222,11111222' 
TABS,ioos:station:wmo:42044:1,2010-05-01T14:30:00Z,26.1914,-97.0507,0.0,8.657857703,156.0109002,10.82,'11111222,11111222,11111222' 
TABS,ioos:station:wmo:42044:1,2010-05-01T15:00:00Z,26.1914,-97.0507,0.0,4.76931861,199.3469062,7.34,'11111222,11111222,11111222' 
TABS,ioos:station:wmo:42044:1,2010-05-01T15:30:00Z,26.1914,-97.0507,0.0,5.145600062,182.6735518,6.63,'11111222,11111222,11111222' 
TABS,ioos:station:wmo:42044:1,2010-05-01T16:00:00Z,26.1914,-97.0507,0.0,6.409134107,168.9357555,8.09,'11111222,11111222,11111222' 
TABS,ioos:station:wmo:42044:1,2010-05-01T16:30:00Z,26.1914,-97.0507,0.0,6.760783978,167.0945529,8.01,'11111222,11111222,11111222' 
TABS,ioos:station:wmo:42044:1,2010-05-01T17:00:00Z,26.1914,-97.0507,0.0,6.60803299,169.625591,8.25,'11111222,11111222,11111222' 
TABS,ioos:station:wmo:42044:1,2010-05-01T17:30:00Z,26.1914,-97.0507,0.0,5.826027806,160.4456627,6.9,'11111222,11111222,11111222' 
TABS,ioos:station:wmo:42044:1,2010-05-01T18:00:00Z,26.1914,-97.0507,0.0,5.550612579,158.6588941,6.83,'11111222,11111222,11111222' 
TABS,ioos:station:wmo:42044:1,2010-05-01T18:30:00Z,26.1914,-97.0507,0.0,5.51739975,149.6242447,6.63,'11111222,11111222,11111222' 
TABS,ioos:station:wmo:42044:1,2010-05-01T19:00:00Z,26.1914,-97.0507,0.0,5.241373866,141.8185143,6.44,'11111222,11111222,11111222' 
TABS,ioos:station:wmo:42044:1,2010-05-01T19:30:00Z,26.1914,-97.0507,0.0,5.730139614,142.7304359,7.12,'11111222,11111222,11111222' 
TABS,ioos:station:wmo:42044:1,2010-05-01T20:00:00Z,26.1914,-97.0507,0.0,5.942263878,142.5904359,7.27,'11111222,11111222,11111222' 
TABS,ioos:station:wmo:42044:1,2010-05-01T20:30:00Z,26.1914,-97.0507,0.0,4.975399481,144.4893894,6.53,'11111222,11111222,11111222' 
TABS,ioos:station:wmo:42044:1,2010-05-01T21:00:00Z,26.1914,-97.0507,0.0,4.70664424,140.0856277,6.14,'11111222,11111222,11111222' 
TABS,ioos:station:wmo:42044:1,2010-05-01T21:30:00Z,26.1914,-97.0507,0.0,3.800631526,139.268199,5.34,'11111222,11111222,11111222' 
TABS,ioos:station:wmo:42044:1,2010-05-01T22:00:00Z,26.1914,-97.0507,0.0,3.09962901,119.7910875,4.26,'11111222,11111222,11111222' 
TABS,ioos:station:wmo:42044:1,2010-05-01T22:30:00Z,26.1914,-97.0507,0.0,3.0511801,118.1612102,4.29,'11111222,11111222,11111222' 
TABS,ioos:station:wmo:42044:1,2010-05-01T23:00:00Z,26.1914,-97.0507,0.0,4.019203901,110.6898963,5.5,'11111222,11111222,11111222' 
TABS,ioos:station:wmo:42044:1,2010-05-01T23:30:00Z,26.1914,-97.0507,0.0,4.378961064,117.6187352,5.9,'11111222,11111222,11111222' 
TABS,ioos:station:wmo:42044:1,2010-05-02T00:00:00Z,26.1914,-97.0507,0.0,5.33158513,111.2230552,7.17,'11111222,11111222,11111222' 
TABS,ioos:station:wmo:42044:1,2010-05-02T00:30:00Z,26.1914,-97.0507,0.0,6.107569075,119.4194283,7.34,'11111222,11111222,11111222' 
TABS,ioos:station:wmo:42044:1,2010-05-02T01:00:00Z,26.1914,-97.0507,0.0,4.504575452,127.7860705,5.47,'11111222,11111222,11111222' 
TABS,ioos:station:wmo:42044:1,2010-05-02T01:30:00Z,26.1914,-97.0507,0.0,4.320856397,131.6228509,5.29,'11111222,11111222,11111222' 
TABS,ioos:station:wmo:42044:1,2010-05-02T02:00:00Z,26.1914,-97.0507,0.0,4.24750515,130.7040387,5.33,'11111222,11111222,11111222' 
TABS,ioos:station:wmo:42044:1,2010-05-02T02:30:00Z,26.1914,-97.0507,0.0,3.317890896,124.935771,4.37,'11111222,11111222,11111222' 
TABS,ioos:station:wmo:42044:1,2010-05-02T03:00:00Z,26.1914,-97.0507,0.0,2.652413995,133.6254841,3.48,'11111222,11111222,11111222' 
TABS,ioos:station:wmo:42044:1,2010-05-02T03:30:00Z,26.1914,-97.0507,0.0,2.332595121,145.8333367,2.97,'11111222,11111222,11111222' 
TABS,ioos:station:wmo:42044:1,2010-05-02T04:00:00Z,26.1914,-97.0507,0.0,1.252557384,183.6621375,1.67,'11111222,11111222,11111222' 
TABS,ioos:station:wmo:42044:1,2010-05-02T04:30:00Z,26.1914,-97.0507,0.0,0.840773453,243.1302497,1.71,'11111222,11111222,11111222' 
TABS,ioos:station:wmo:42044:1,2010-05-02T05:00:00Z,26.1914,-97.0507,0.0,1.502165104,287.8318159,2.69,'11111222,11111222,11111222' 
TABS,ioos:station:wmo:42044:1,2010-05-02T05:30:00Z,26.1914,-97.0507,0.0,1.607015868,264.6441875,2.47,'11111222,11111222,11111222' 
TABS,ioos:station:wmo:42044:1,2010-05-02T06:00:00Z,26.1914,-97.0507,0.0,0.955091619,287.6760674,1.73,'11111222,11111222,11111222' 
TABS,ioos:station:wmo:42044:1,2010-05-02T06:30:00Z,26.1914,-97.0507,0.0,2.228923507,284.2855916,3.4,'11111222,11111222,11111222' 
TABS,ioos:station:wmo:42044:1,2010-05-02T07:00:00Z,26.1914,-97.0507,0.0,2.682871596,299.7183228,4.06,'11111222,11111222,11111222' 
TABS,ioos:station:wmo:42044:1,2010-05-02T07:30:00Z,26.1914,-97.0507,0.0,3.174980315,314.6170788,4.3,'11111222,11111222,11111222' 
TABS,ioos:station:wmo:42044:1,2010-05-02T08:00:00Z,26.1914,-97.0507,0.0,3.577373338,310.0105439,4.89,'11111222,11111222,11111222' 
TABS,ioos:station:wmo:42044:1,2010-05-02T08:30:00Z,26.1914,-97.0507,0.0,3.996210705,316.3179691,5.41,'11111222,11111222,11111222' 
TABS,ioos:station:wmo:42044:1,2010-05-02T09:00:00Z,26.1914,-97.0507,0.0,5.366348852,320.8231576,6.81,'11111222,11111222,11111222' 
TABS,ioos:station:wmo:42044:1,2010-05-02T09:30:00Z,26.1914,-97.0507,0.0,5.138248729,324.8251488,7.42,'11111222,11111222,11111222' 
TABS,ioos:station:wmo:42044:1,2010-05-02T10:00:00Z,26.1914,-97.0507,0.0,7.375208472,325.6633937,9.78,'11111222,11111222,11111222' 
TABS,ioos:station:wmo:42044:1,2010-05-02T10:30:00Z,26.1914,-97.0507,0.0,8.918587332,339.2482962,11.58,'11111222,11111222,11111222' 
TABS,ioos:station:wmo:42044:1,2010-05-02T11:00:00Z,26.1914,-97.0507,0.0,8.65296481,348.1964155,11.49,'11111222,11111222,11111222' 
TABS,ioos:station:wmo:42044:1,2010-05-02T11:30:00Z,26.1914,-97.0507,0.0,9.244944564,348.8357355,11.75,'11111222,11111222,11111222' 
TABS,ioos:station:wmo:42044:1,2010-05-02T12:00:00Z,26.1914,-97.0507,0.0,8.723267736,348.5610716,11.78,'11111222,11111222,11111222' 
TABS,ioos:station:wmo:42044:1,2010-05-02T12:30:00Z,26.1914,-97.0507,0.0,7.864477096,348.2612458,9.78,'11111222,11111222,11111222' 
TABS,ioos:station:wmo:42044:1,2010-05-02T13:00:00Z,26.1914,-97.0507,0.0,7.649209109,324.1487264,9.78,'11111222,11111222,11111222' 
TABS,ioos:station:wmo:42044:1,2010-05-02T13:30:00Z,26.1914,-97.0507,0.0,8.52066312,315.1425392,10.94,'11111222,11111222,11111222' 
TABS,ioos:station:wmo:42044:1,2010-05-02T14:00:00Z,26.1914,-97.0507,0.0,9.145676574,320.2344177,11.66,'11111222,11111222,11111222' 
TABS,ioos:station:wmo:42044:1,2010-05-02T14:30:00Z,26.1914,-97.0507,0.0,9.772947355,324.5371623,11.88,'11111222,11111222,11111222' 
TABS,ioos:station:wmo:42044:1,2010-05-02T15:00:00Z,26.1914,-97.0507,0.0,9.190799748,331.5386557,12.3,'11111222,11111222,11111222' 
TABS,ioos:station:wmo:42044:1,2010-05-02T15:30:00Z,26.1914,-97.0507,0.0,9.243403053,341.780501,11.76,'11111222,11111222,11111222' 
TABS,ioos:station:wmo:42044:1,2010-05-02T16:00:00Z,26.1914,-97.0507,0.0,8.903914869,347.4151742,11.35,'11111222,11111222,11111222' 
TABS,ioos:station:wmo:42044:1,2010-05-02T16:30:00Z,26.1914,-97.0507,0.0,7.881199147,356.9449783,10.27,'11111222,11111222,11111222' 
TABS,ioos:station:wmo:42044:1,2010-05-02T17:00:00Z,26.1914,-97.0507,0.0,7.457305143,357.4635195,9.96,'11111222,11111222,11111222' 
TABS,ioos:station:wmo:42044:1,2010-05-02T17:30:00Z,26.1914,-97.0507,0.0,6.452410402,3.553959466,8.25,'11111222,11111222,11111222' 
TABS,ioos:station:wmo:42044:1,2010-05-02T18:00:00Z,26.1914,-97.0507,0.0,6.007495318,2.862188074,7.66,'11111222,11111222,11111222' 
TABS,ioos:station:wmo:42044:1,2010-05-02T18:30:00Z,26.1914,-97.0507,0.0,5.900389818,3.400455493,7.39,'11111222,11111222,11111222' 
TABS,ioos:station:wmo:42044:1,2010-05-02T19:00:00Z,26.1914,-97.0507,0.0,5.713737831,6.229228977,7.23,'11111222,11111222,11111222' 
TABS,ioos:station:wmo:42044:1,2010-05-02T19:30:00Z,26.1914,-97.0507,0.0,5.542355095,7.881335026,6.91,'11111222,11111222,11111222' 
TABS,ioos:station:wmo:42044:1,2010-05-02T20:00:00Z,26.1914,-97.0507,0.0,5.33719964,20.16628282,7.07,'11111222,11111222,11111222' 
TABS,ioos:station:wmo:42044:1,2010-05-02T20:30:00Z,26.1914,-97.0507,0.0,5.097528813,47.86208284,6.81,'11111222,11111222,11111222' 
TABS,ioos:station:wmo:42044:1,2010-05-02T21:00:00Z,26.1914,-97.0507,0.0,4.937904414,48.52994863,6.21,'11111222,11111222,11111222' 
TABS,ioos:station:wmo:42044:1,2010-05-02T21:30:00Z,26.1914,-97.0507,0.0,5.12937618,61.08608475,6.51,'11111222,11111222,11111222' 
TABS,ioos:station:wmo:42044:1,2010-05-02T22:00:00Z,26.1914,-97.0507,0.0,4.699723396,59.9977023,6.1,'11111222,11111222,11111222' 
TABS,ioos:station:wmo:42044:1,2010-05-02T22:30:00Z,26.1914,-97.0507,0.0,4.519834068,60.14470449,5.72,'11111222,11111222,11111222' 
TABS,ioos:station:wmo:42044:1,2010-05-02T23:00:00Z,26.1914,-97.0507,0.0,4.439279221,65.51295541,5.76,'11111222,11111222,11111222' 
TABS,ioos:station:wmo:42044:1,2010-05-02T23:30:00Z,26.1914,-97.0507,0.0,4.206720813,65.56695348,5.24,'11111222,11111222,11111222' 
TABS,ioos:station:wmo:42044:1,2010-05-03T00:00:00Z,26.1914,-97.0507,0.0,4.056648863,69.50970498,5.04,'11111222,11111222,11111222' 
TABS,ioos:station:wmo:42044:1,2010-05-03T00:30:00Z,26.1914,-97.0507,0.0,4.320011574,73.87204097,5.9,'11111222,11111222,11111222' 
TABS,ioos:station:wmo:42044:1,2010-05-03T01:00:00Z,26.1914,-97.0507,0.0,4.306100324,77.25431941,5.65,'11111222,11111222,11111222' 
TABS,ioos:station:wmo:42044:1,2010-05-03T01:30:00Z,26.1914,-97.0507,0.0,4.45198832,82.12430316,5.84,'11111222,11111222,11111222' 
TABS,ioos:station:wmo:42044:1,2010-05-03T02:00:00Z,26.1914,-97.0507,0.0,4.899816323,93.62780605,6.32,'11111222,11111222,11111222' 
TABS,ioos:station:wmo:42044:1,2010-05-03T02:30:00Z,26.1914,-97.0507,0.0,4.690042644,96.48899687,6.08,'11111222,11111222,11111222' 
TABS,ioos:station:wmo:42044:1,2010-05-03T03:00:00Z,26.1914,-97.0507,0.0,4.560438575,99.33879406,5.8,'11111222,11111222,11111222' 
TABS,ioos:station:wmo:42044:1,2010-05-03T03:30:00Z,26.1914,-97.0507,0.0,4.709405483,109.4741533,6.15,'11111222,11111222,11111222' 
TABS,ioos:station:wmo:42044:1,2010-05-03T04:00:00Z,26.1914,-97.0507,0.0,4.144514447,110.1842686,5.47,'11111222,11111222,11111222' 
TABS,ioos:station:wmo:42044:1,2010-05-03T04:30:00Z,26.1914,-97.0507,0.0,4.24699894,112.2777708,5.65,'11111222,11111222,11111222' 
TABS,ioos:station:wmo:42044:1,2010-05-03T05:00:00Z,26.1914,-97.0507,0.0,3.840208328,112.0234249,5.44,'11111222,11111222,11111222' 
TABS,ioos:station:wmo:42044:1,2010-05-03T05:30:00Z,26.1914,-97.0507,0.0,3.44419802,117.6814178,4.52,'11111222,11111222,11111222' 
TABS,ioos:station:wmo:42044:1,2010-05-03T06:00:00Z,26.1914,-97.0507,0.0,3.78219513,118.9372466,4.87,'11111222,11111222,11111222' 
TABS,ioos:station:wmo:42044:1,2010-05-03T06:30:00Z,26.1914,-97.0507,0.0,3.843761179,110.0853622,5.02,'11111222,11111222,11111222' 
TABS,ioos:station:wmo:42044:1,2010-05-03T07:00:00Z,26.1914,-97.0507,0.0,3.984532595,121.9752448,5.09,'11111222,11111222,11111222' 
TABS,ioos:station:wmo:42044:1,2010-05-03T07:30:00Z,26.1914,-97.0507,0.0,3.992242478,129.5118892,4.8,'11111222,11111222,11111222' 
TABS,ioos:station:wmo:42044:1,2010-05-03T08:00:00Z,26.1914,-97.0507,0.0,3.820274859,131.0733799,4.78,'11111222,11111222,11111222' 
TABS,ioos:station:wmo:42044:1,2010-05-03T08:30:00Z,26.1914,-97.0507,0.0,3.788469348,104.3667565,4.94,'11111222,11111222,11111222' 
TABS,ioos:station:wmo:42044:1,2010-05-03T09:00:00Z,26.1914,-97.0507,0.0,3.78132252,91.51582527,4.95,'11111222,11111222,11111222' 
TABS,ioos:station:wmo:42044:1,2010-05-03T09:30:00Z,26.1914,-97.0507,0.0,4.693847036,92.3202979,5.91,'11111222,11111222,11111222' 
TABS,ioos:station:wmo:42044:1,2010-05-03T10:00:00Z,26.1914,-97.0507,0.0,4.402044979,95.73690289,5.47,'11111222,11111222,11111222' 
TABS,ioos:station:wmo:42044:1,2010-05-03T10:30:00Z,26.1914,-97.0507,0.0,3.426149442,115.5931229,4.66,'11111222,11111222,11111222' 
TABS,ioos:station:wmo:42044:1,2010-05-03T11:00:00Z,26.1914,-97.0507,0.0,3.08196366,145.1758027,4.2,'11111222,11111222,11111222' 
TABS,ioos:station:wmo:42044:1,2010-05-03T11:30:00Z,26.1914,-97.0507,0.0,3.191645344,150.9456743,4.04,'11111222,11111222,11111222' 
TABS,ioos:station:wmo:42044:1,2010-05-03T12:00:00Z,26.1914,-97.0507,0.0,2.636095598,151.1990064,3.79,'11111222,11111222,11111222' 
TABS,ioos:station:wmo:42044:1,2010-05-03T12:30:00Z,26.1914,-97.0507,0.0,2.726407893,150.8027927,3.55,'11111222,11111222,11111222' 
TABS,ioos:station:wmo:42044:1,2010-05-03T13:00:00Z,26.1914,-97.0507,0.0,2.991253918,156.3489524,3.76,'11111222,11111222,11111222' 
TABS,ioos:station:wmo:42044:1,2010-05-03T13:30:00Z,26.1914,-97.0507,0.0,3.574632848,160.0445386,4.53,'11111222,11111222,11111222' 
TABS,ioos:station:wmo:42044:1,2010-05-03T14:00:00Z,26.1914,-97.0507,0.0,2.818244134,205.2012752,3.75,'11111222,11111222,11111222' 
TABS,ioos:station:wmo:42044:1,2010-05-03T14:30:00Z,26.1914,-97.0507,0.0,2.88189174,208.6106032,3.73,'11111222,11111222,11111222' 
TABS,ioos:station:wmo:42044:1,2010-05-03T15:00:00Z,26.1914,-97.0507,0.0,2.800803456,196.1703669,3.57,'11111222,11111222,11111222' 
TABS,ioos:station:wmo:42044:1,2010-05-03T15:30:00Z,26.1914,-97.0507,0.0,1.043072385,175.6015154,1.87,'11111222,11111222,11111222' 
TABS,ioos:station:wmo:42044:1,2010-05-03T16:00:00Z,26.1914,-97.0507,0.0,0.979489663,139.9700448,1.63,'11111222,11111222,11111222' 
TABS,ioos:station:wmo:42044:1,2010-05-03T16:30:00Z,26.1914,-97.0507,0.0,1.033247308,132.6470243,1.64,'11111222,11111222,11111222' 
TABS,ioos:station:wmo:42044:1,2010-05-03T17:00:00Z,26.1914,-97.0507,0.0,0.466904701,136.7360162,1.27,'11111222,11111222,11111222' 
TABS,ioos:station:wmo:42044:1,2010-05-03T17:30:00Z,26.1914,-97.0507,0.0,0.920706251,8.745931352,1.63,'11111222,11111222,11111222' 
TABS,ioos:station:wmo:42044:1,2010-05-03T18:00:00Z,26.1914,-97.0507,0.0,0.95336247,4.813329179,1.92,'11111222,11111222,11111222' 
TABS,ioos:station:wmo:42044:1,2010-05-03T18:30:00Z,26.1914,-97.0507,0.0,2.953574106,349.0703271,4.01,'11111222,11111222,11111222' 
TABS,ioos:station:wmo:42044:1,2010-05-03T19:00:00Z,26.1914,-97.0507,0.0,3.222623155,2.311712214,4.53,'11111222,11111222,11111222' 
TABS,ioos:station:wmo:42044:1,2010-05-03T19:30:00Z,26.1914,-97.0507,0.0,4.090048899,359.7196175,5.32,'11111222,11144222,11111222' 
TABS,ioos:station:wmo:42044:1,2010-05-03T20:00:00Z,26.1914,-97.0507,0.0,4.85037112,0.708565494,6.07,'11111222,11111222,11111222' 
TABS,ioos:station:wmo:42044:1,2010-05-03T20:30:00Z,26.1914,-97.0507,0.0,5.134832032,4.355694741,6.58,'11111222,11111222,11111222' 
TABS,ioos:station:wmo:42044:1,2010-05-03T21:00:00Z,26.1914,-97.0507,0.0,5.574585186,6.385367122,7.13,'11111222,11111222,11111222' 
TABS,ioos:station:wmo:42044:1,2010-05-03T21:30:00Z,26.1914,-97.0507,0.0,5.284931409,14.35153061,6.86,'11111222,11111222,11111222' 
TABS,ioos:station:wmo:42044:1,2010-05-03T22:00:00Z,26.1914,-97.0507,0.0,5.866804923,16.3341784,7.49,'11111222,11111222,11111222' 
TABS,ioos:station:wmo:42044:1,2010-05-03T22:30:00Z,26.1914,-97.0507,0.0,5.970535989,23.38733649,7.72,'11111222,11111222,11111222' 
TABS,ioos:station:wmo:42044:1,2010-05-03T23:00:00Z,26.1914,-97.0507,0.0,6.164162555,27.85350535,7.98,'11111222,11111222,11111222' 
TABS,ioos:station:wmo:42044:1,2010-05-03T23:30:00Z,26.1914,-97.0507,0.0,6.240072115,36.59414326,7.9,'11111222,11111222,11111222' 
TABS,ioos:station:wmo:42044:1,2010-05-04T00:00:00Z,26.1914,-97.0507,0.0,5.694137336,38.43950325,7.53,'11111222,11111222,11111222' 
TABS,ioos:station:wmo:42044:1,2010-05-04T00:30:00Z,26.1914,-97.0507,0.0,5.733620148,40.18910937,7.39,'11111222,11111222,11111222' 
TABS,ioos:station:wmo:42044:1,2010-05-04T01:00:00Z,26.1914,-97.0507,0.0,4.962307931,47.69492175,6.47,'11111222,11111222,11111222' 
TABS,ioos:station:wmo:42044:1,2010-05-04T01:30:00Z,26.1914,-97.0507,0.0,4.292283774,45.47163118,5.38,'11111222,11111222,11111222' 
TABS,ioos:station:wmo:42044:1,2010-05-04T02:00:00Z,26.1914,-97.0507,0.0,3.70448377,65.09486851,4.68,'11111222,11111222,11111222' 
TABS,ioos:station:wmo:42044:1,2010-05-04T02:30:00Z,26.1914,-97.0507,0.0,3.619019204,81.5784301,4.51,'11111222,11111222,11111222' 
TABS,ioos:station:wmo:42044:1,2010-05-04T03:00:00Z,26.1914,-97.0507,0.0,3.50690747,93.59712958,4.47,'11111222,11111222,11111222' 
TABS,ioos:station:wmo:42044:1,2010-05-04T03:30:00Z,26.1914,-97.0507,0.0,2.99,90.00042092,3.75,'11111222,11111222,11111222' 
TABS,ioos:station:wmo:42044:1,2010-05-04T04:00:00Z,26.1914,-97.0507,0.0,2.469534369,97.2117525,3.55,'11111222,11111222,11111222' 
TABS,ioos:station:wmo:42044:1,2010-05-04T04:30:00Z,26.1914,-97.0507,0.0,1.515288751,73.11928839,2.08,'11111222,11111222,11111222' 
TABS,ioos:station:wmo:42044:1,2010-05-04T05:00:00Z,26.1914,-97.0507,0.0,0.463249393,13.73602573,1.07,'11111222,11111222,11111222' 
TABS,ioos:station:wmo:42044:1,2010-05-04T05:30:00Z,26.1914,-97.0507,0.0,0.946678404,301.1712761,1.67,'11111222,11111222,11111222' 
TABS,ioos:station:wmo:42044:1,2010-05-04T06:00:00Z,26.1914,-97.0507,0.0,0.91241438,316.3321115,1.53,'11111222,11111222,11111222' 
TABS,ioos:station:wmo:42044:1,2010-05-04T06:30:00Z,26.1914,-97.0507,0.0,1.094166349,329.215715,1.72,'11111222,11111222,11111222' 
TABS,ioos:station:wmo:42044:1,2010-05-04T07:00:00Z,26.1914,-97.0507,0.0,1.556020565,307.164388,2.26,'11111222,11111222,11111222' 
TABS,ioos:station:wmo:42044:1,2010-05-04T07:30:00Z,26.1914,-97.0507,0.0,1.959004849,313.9657896,2.99,'11111222,11111222,11111222' 
TABS,ioos:station:wmo:42044:1,2010-05-04T08:00:00Z,26.1914,-97.0507,0.0,2.240580282,296.2219055,3.06,'11111222,11111222,11111222' 
TABS,ioos:station:wmo:42044:1,2010-05-04T08:30:00Z,26.1914,-97.0507,0.0,1.99459269,296.8219185,2.85,'11111222,11111222,11111222' 
TABS,ioos:station:wmo:42044:1,2010-05-04T09:00:00Z,26.1914,-97.0507,0.0,3.144550842,286.8213706,4.14,'11111222,11111222,11111222' 
TABS,ioos:station:wmo:42044:1,2010-05-04T09:30:00Z,26.1914,-97.0507,0.0,3.560730262,288.3331374,4.38,'11111222,11111222,11111222' 
TABS,ioos:station:wmo:42044:1,2010-05-04T10:00:00Z,26.1914,-97.0507,0.0,3.330975833,282.6593772,4.16,'11111222,11111222,11111222' 
TABS,ioos:station:wmo:42044:1,2010-05-04T10:30:00Z,26.1914,-97.0507,0.0,3.996998874,292.9726676,4.77,'11111222,11111222,11111222' 
TABS,ioos:station:wmo:42044:1,2010-05-04T11:00:00Z,26.1914,-97.0507,0.0,4.454177814,301.691699,5.91,'11111222,11111222,11111222' 
TABS,ioos:station:wmo:42044:1,2010-05-04T11:30:00Z,26.1914,-97.0507,0.0,5.144015941,305.2656852,6.65,'11111222,11111222,11111222' 
TABS,ioos:station:wmo:42044:1,2010-05-04T12:00:00Z,26.1914,-97.0507,0.0,5.018575495,306.0021079,6.67,'11111222,11111222,11111222' 
TABS,ioos:station:wmo:42044:1,2010-05-04T12:30:00Z,26.1914,-97.0507,0.0,5.7268927,308.6909672,7.46,'11111222,11111222,11111222' 
TABS,ioos:station:wmo:42044:1,2010-05-04T13:00:00Z,26.1914,-97.0507,0.0,5.710735504,310.3835535,7.25,'11111222,11111222,11111222' 
TABS,ioos:station:wmo:42044:1,2010-05-04T13:30:00Z,26.1914,-97.0507,0.0,4.802853319,302.0685346,6.62,'11111222,11111222,11111222' 
TABS,ioos:station:wmo:42044:1,2010-05-04T14:00:00Z,26.1914,-97.0507,0.0,3.994308451,301.3818931,4.99,'11111222,11111222,11111222' 
TABS,ioos:station:wmo:42044:1,2010-05-04T14:30:00Z,26.1914,-97.0507,0.0,3.808214805,319.3659521,5.02,'11111222,11111222,11111222' 
TABS,ioos:station:wmo:42044:1,2010-05-04T15:00:00Z,26.1914,-97.0507,0.0,3.730804203,337.6280602,4.8,'11111222,11111222,11111222' 
TABS,ioos:station:wmo:42044:1,2010-05-04T15:30:00Z,26.1914,-97.0507,0.0,3.306675067,356.3586128,4.36,'11111222,11111222,11111222' 
TABS,ioos:station:wmo:42044:1,2010-05-04T16:00:00Z,26.1914,-97.0507,0.0,2.370232056,5.325517712,3.14,'11111222,11111222,11111222' 
TABS,ioos:station:wmo:42044:1,2010-05-04T16:30:00Z,26.1914,-97.0507,0.0,3.068876016,45.26371768,3.94,'11111222,11111222,11111222' 
TABS,ioos:station:wmo:42044:1,2010-05-04T17:00:00Z,26.1914,-97.0507,0.0,3.23261504,87.69480633,4.41,'11111222,11111222,11111222' 
TABS,ioos:station:wmo:42044:1,2010-05-04T17:30:00Z,26.1914,-97.0507,0.0,3.166275414,116.646336,4.19,'11111222,11111222,11111222' 
TABS,ioos:station:wmo:42044:1,2010-05-04T18:00:00Z,26.1914,-97.0507,0.0,2.766261014,127.6573247,3.66,'11111222,11111222,11111222' 
TABS,ioos:station:wmo:42044:1,2010-05-04T18:30:00Z,26.1914,-97.0507,0.0,2.498979792,132.2431655,3.84,'11111222,11111222,11111222' 